Change the Weather History Date:

Thursday, July 25, 2013

  Actual Average (KISP) Record (KISP)
Temperature  
Mean Temperature 66 °F 74 °F  
Max Temperature 71 °F 82 °F 94 °F (1987)
Min Temperature 60 °F 67 °F 55 °F (2002)
Degree Days  
Heating Degree Days 0 0  
Month to date heating degree days 0  
Since 1 June heating degree days 38  
Since 1 July heating degree days 0  
Cooling Degree Days 0 9  
Month to date cooling degree days 218  
Year to date cooling degree days 382  
Since 1 June cooling degree days 358  
Growing Degree Days 16 (Base 50)    
Moisture  
Dew Point 58 °F    
Average Humidity 82    
Maximum Humidity 94    
Minimum Humidity 61    
Precipitation  
Precipitation 0.19 in 0.12 in 0.92 in (2010)
Month to date precipitation 2.70  
Year to date precipitation 26.43  
Snow  
Snow 0.00 in 0.00 in - ()
Month to date snowfall 0.0  
Since 1 July snowfall 0.0  
Snow Depth -    
Sea Level Pressure  
Sea Level Pressure 30.01 in    
Wind  
Wind Speed 9 mph (NNE)    
Max Wind Speed 13 mph    
Max Gust Speed 20 mph    
Visibility 10 miles    
Events Rain    
T = Trace of Precipitation, MM = Missing Value Source: NWS Daily Summary

Daily Weather History Graph

Daily Weather History Graph

Search for Another Location

Airport or City:

Trip Planner

Search our weather history database for the weather conditions in past years. The results will help you decide how hot, cold, wet, or windy it might be!

Date:

Astronomy

Jul. 25, 2013 Rise Set
Actual Time 5:41 AM EDT 8:13 PM EDT
Civil Twilight 5:10 AM EDT 8:45 PM EDT
Nautical Twilight 4:30 AM EDT 9:24 PM EDT
Astronomical Twilight 3:46 AM EDT 10:08 PM EDT
Moon 9:51 PM EDT (7/25) 9:09 AM EDT (7/25)
Length of Visible Light 15h 35m
Length of Day
14h 32m
Waning Gibbous, 88% of the Moon is Illuminated
Jul 25
Waning Gibbous
Jul 29
Last Quarter
Aug 6
New
Aug 14
First Quarter
Aug 20
Full

Hourly Weather History & Observations

Time (EDT) Temp. Dew Point Humidity Pressure Visibility Wind Dir Wind Speed Gust Speed Precip Events Conditions
12:56 AM 71.1 °F 57.0 °F 61% 29.93 in 10.0 mi North 12.7 mph - N/A   Overcast
1:56 AM 69.1 °F 57.0 °F 65% 29.92 in 10.0 mi North 11.5 mph - N/A   Overcast
2:56 AM 69.1 °F 57.0 °F 65% 29.93 in 10.0 mi North 10.4 mph 19.6 mph N/A   Mostly Cloudy
3:56 AM 68.0 °F 57.9 °F 70% 29.93 in 10.0 mi North 10.4 mph - N/A   Overcast
4:56 AM 66.9 °F 55.9 °F 68% 29.95 in 10.0 mi North 10.4 mph 19.6 mph N/A   Overcast
5:56 AM 64.0 °F 54.0 °F 70% 29.96 in 10.0 mi North 6.9 mph - 0.00 in Rain Light Rain
6:51 AM 60.8 °F 55.4 °F 82% 29.98 in 10.0 mi North 4.6 mph - 0.03 in   Overcast
6:56 AM 61.0 °F 55.9 °F 83% 29.97 in 10.0 mi NNE 4.6 mph - 0.03 in   Overcast
7:56 AM 62.1 °F 55.9 °F 80% 30.00 in 10.0 mi NNE 5.8 mph - N/A   Overcast
8:56 AM 63.0 °F 55.9 °F 78% 30.01 in 10.0 mi Variable 5.8 mph - N/A   Overcast
9:56 AM 64.0 °F 55.9 °F 75% 30.03 in 10.0 mi NNE 9.2 mph 16.1 mph N/A   Overcast
10:56 AM 63.0 °F 55.9 °F 78% 30.04 in 10.0 mi North 8.1 mph 18.4 mph N/A   Overcast
11:56 AM 62.1 °F 55.9 °F 80% 30.05 in 10.0 mi North 6.9 mph 17.3 mph N/A   Overcast
12:56 PM 63.0 °F 57.0 °F 81% 30.05 in 10.0 mi NNE 8.1 mph - 0.00 in   Overcast
1:56 PM 64.0 °F 57.9 °F 80% 30.03 in 10.0 mi Variable 6.9 mph 17.3 mph N/A   Overcast
2:15 PM 64.4 °F 57.2 °F 77% 30.03 in 10.0 mi Variable 6.9 mph 19.6 mph N/A   Overcast
2:56 PM 64.0 °F 57.9 °F 80% 30.04 in 10.0 mi NNE 5.8 mph - N/A   Overcast
3:28 PM 64.4 °F 59.0 °F 83% 30.05 in 10.0 mi North 5.8 mph - 0.00 in Rain Light Rain
3:56 PM 64.0 °F 59.0 °F 84% 30.04 in 10.0 mi North 8.1 mph - 0.00 in Rain Light Rain
4:13 PM 62.6 °F 59.0 °F 88% 30.03 in 10.0 mi NNE 8.1 mph - 0.00 in Rain Light Rain
4:53 PM 62.6 °F 60.8 °F 94% 30.03 in 7.0 mi North 8.1 mph - 0.02 in Rain Light Rain
4:56 PM 63.0 °F 60.1 °F 90% 30.04 in 7.0 mi North 9.2 mph 17.3 mph 0.02 in Rain Light Rain
5:24 PM 62.6 °F 60.8 °F 94% 30.04 in 8.0 mi North 6.9 mph - 0.02 in Rain Light Rain
5:56 PM 62.1 °F 60.1 °F 93% 30.05 in 8.0 mi NNE 5.8 mph - 0.03 in Rain Light Rain
6:56 PM 62.1 °F 60.1 °F 93% 30.04 in 10.0 mi NNE 6.9 mph - 0.02 in Rain Light Rain
7:56 PM 62.1 °F 60.1 °F 93% 30.05 in 10.0 mi Variable 5.8 mph - 0.00 in Rain Light Rain
8:56 PM 62.1 °F 60.1 °F 93% 30.03 in 10.0 mi North 6.9 mph - 0.07 in Rain Light Rain
9:56 PM 62.1 °F 60.1 °F 93% 30.03 in 10.0 mi North 9.2 mph - 0.00 in Rain Light Rain
10:56 PM 62.1 °F 60.1 °F 93% 30.03 in 10.0 mi North 5.8 mph - 0.01 in Rain Light Rain
11:56 PM 62.1 °F 60.1 °F 93% 30.04 in 7.0 mi North 5.8 mph - 0.01 in Rain Light Rain